DELTA 1 DEB

Satellite information

Favourite Embed

Satellite Type and Status

DEBRISIN ORBIT

Key statistics

Satellite DELTA 1 DEB at a glance.

Uptime

18988

Days in orbit

Revolutions

≈ 12.5

Per day

Orbit

SSO

Sun Synchronous Orbit

Inclination

102.0

Latest

Satellite identification and parameters

Extended collection of information and parameters for DELTA 1 DEB.

Object identification

Identified? True

Debris? True

Object name: DELTA 1 DEB

International designator: 1973-086HN

Object number (NORAD): 42574

Object ID (CCSDS): 42574

Country: UNITED STATES OF AMERICA (US)

Current information (Y/N): Y

RCS size: SMALL

Orbital parameters

Period: 115.385 minutes

Inclination: 102.0084 deg

SMA: 7851.004 km

Apoapsis: 1494.239 km

Periapsis: 1451.499 km

RAAN: 290.7463 deg

Eccentricy: 0.00272195

Argument of periapsis: 339.9142 deg

Mean anomaly: 20.0853 deg

Mean motion: 12.48001066 rev/day

Mean motion (dot): 0.00000364 rev/day2

B* drag term: 0.002764708 1/REarth

Two-line elements (TLE)

Creation date: Oct. 30, 2025, 10:34 a.m.

Reference frame: TEME

Reference center: EARTH

Epoch: Oct. 30, 2025, 5:28 a.m. UTC

TLE line 0: 0 DELTA 1 DEB

TLE line 1: 1 42574U 73086HN 25303.22843572 .00000364 00000-0 27647-2 0 9993

TLE line 2: 2 42574 102.0084 290.7463 0027219 339.9142 20.0853 12.48001066544371

Live tracking on map

Real-time ground track for satellite DELTA 1 DEB.

In-orbit conjunctions

A list of the most updated potential collisions computed for object DELTA 1 DEB.

Target Orbit TCA Probability of collision Miss distance Type
COSMOS 2194 LEO 2025-08-09 07:11:42 0.0001467077 147.0 (m) PAYLOAD

Associated space launch

Meteorological satellite using radiometric imaging

DELTA 1 DEB was lifted into orbit during the mission ‘Delta 0300 | NOAA 3’, on board a Delta 0300 space rocket.

The launch took place on Nov. 6, 1973, 5:02 p.m. from Space Launch Complex 2W.

For more information about the launch, click the button.

Launch to space Delta 0300 | NOAA 3
Delta 0300 | NOAA 3

Agency: N/A

Status: Launch Successful

Launch date: Nov. 6, 1973, 5:02 p.m. UTC

Rocket: Delta 0300

Launch pad: Space Launch Complex 2W

Location: Vandenberg SFB, CA, USA

...

Latest news about this satellite

There are no fresh news available about this satellite. Check back as we update our databases every day.


Newsletter sign-up

Weekly statistics, charts and insights to help you stay on top of the space industry.